Selinsgrove, PA

3:59 PM EST on December 11, 2019 (GMT -0500)
Penn Valley

Weather History for KSEG - October, 2019

Change the Weather History Date:

Tuesday, October 8, 2019

  Actual Average (KIPT) Record (KIPT)
Temperature  
Mean Temperature 57 °F -  
Max Temperature 66 °F 63 °F 90 °F (2007)
Min Temperature 50 °F 42 °F 26 °F (1935)
Degree Days  
Heating Degree Days 8    
Growing Degree Days 7 (Base 50)    
Moisture  
Dew Point 50 °F    
Average Humidity 85    
Maximum Humidity 100    
Minimum Humidity 47    
Precipitation  
Precipitation 0.03 in - - ()
Sea Level Pressure  
Sea Level Pressure 30.26 in    
Wind  
Wind Speed 2 mph (North)    
Max Wind Speed 10 mph    
Max Gust Speed -    
Visibility 9 miles    
Events Rain    
Averages and records for this station are not official NWS values.
T = Trace of Precipitation, MM = Missing Value Source: NWS Daily Summary

Daily Weather History Graph

Daily Weather History Graph

Search for Another Location

Airport or City:

Astronomy

Oct. 08, 2019 Rise Set
Actual Time 7:10 AM EDT 6:38 PM EDT
Civil Twilight 6:43 AM EDT 7:05 PM EDT
Nautical Twilight 6:11 AM EDT 7:37 PM EDT
Astronomical Twilight 5:39 AM EDT 8:09 PM EDT
Moon 4:38 PM EDT (10/8) 1:55 AM EDT (10/8)
Length of Visible Light 12h 22m
Length of Day
11h 27m
Waxing Gibbous, 77% of the Moon is Illuminated
Oct 8
Waxing Gibbous
Oct 13
Full
Oct 21
Last Quarter
Oct 27
New
Nov 4
First Quarter

Hourly Weather History & Observations

Time (EDT) Temp. Dew Point Humidity Pressure Visibility Wind Dir Wind Speed Gust Speed Precip Events Conditions
12:53 AM 54.0 °F 53.1 °F 97% 30.23 in 10.0 mi Calm Calm - 0.03 in Rain Light Rain
1:53 AM 54.0 °F 53.1 °F 97% 30.25 in 10.0 mi Calm Calm - 0.00 in   Overcast
2:53 AM 53.1 °F 53.1 °F 100% 30.25 in 10.0 mi Calm Calm - N/A   Clear
3:53 AM 53.1 °F 52.0 °F 96% 30.24 in 10.0 mi Calm Calm - N/A   Clear
4:53 AM 53.1 °F 52.0 °F 96% 30.25 in 9.0 mi Calm Calm - N/A   Clear
5:32 AM 53.1 °F 52.0 °F 96% 30.25 in 1.8 mi North 3.5 mph - N/A   Mostly Cloudy
5:41 AM 53.1 °F 52.0 °F 96% 30.25 in 2.5 mi Calm Calm - N/A   Mostly Cloudy
5:48 AM 53.6 °F 51.8 °F 94% 30.25 in 7.0 mi North 3.5 mph - N/A   Mostly Cloudy
5:53 AM 53.1 °F 52.0 °F 96% 30.25 in 8.0 mi Calm Calm - N/A   Overcast
6:26 AM 53.1 °F 52.0 °F 96% 30.28 in 9.0 mi Calm Calm - N/A   Scattered Clouds
6:39 AM 52.0 °F 52.0 °F 100% 30.28 in 10.0 mi Calm Calm - N/A   Mostly Cloudy
6:53 AM 53.1 °F 52.0 °F 96% 30.30 in 10.0 mi Calm Calm - N/A   Mostly Cloudy
7:21 AM 52.0 °F 51.1 °F 97% 30.29 in 10.0 mi Calm Calm - N/A   Mostly Cloudy
7:31 AM 52.0 °F 51.1 °F 97% 30.28 in 10.0 mi Calm Calm - N/A   Scattered Clouds
7:53 AM 52.0 °F 51.1 °F 97% 30.29 in 6.0 mi Calm Calm - N/A   Partly Cloudy
8:53 AM 55.0 °F 53.1 °F 93% 30.29 in 5.0 mi North 3.5 mph - N/A   Scattered Clouds
9:17 AM 55.0 °F 53.1 °F 93% 30.30 in 10.0 mi East 3.5 mph - N/A   Mostly Cloudy
9:53 AM - - N/A% 30.30 in - North - - N/A   Unknown
10:53 AM - - N/A% 30.30 in - North - - N/A   Unknown
11:53 AM 60.1 °F 48.0 °F 64% 30.30 in 10.0 mi NE 10.4 mph - N/A   Unknown
12:53 PM 64.9 °F 48.0 °F 54% 30.29 in 10.0 mi NNE 9.2 mph - N/A   Clear
1:53 PM 64.9 °F 46.0 °F 50% 30.25 in 10.0 mi NNE 8.1 mph - N/A   Clear
2:53 PM 64.9 °F 45.0 °F 48% 30.23 in 10.0 mi North 9.2 mph - N/A   Clear
3:53 PM 64.0 °F 45.0 °F 50% 30.22 in 10.0 mi NE 4.6 mph - N/A   Clear
4:53 PM 64.9 °F 44.1 °F 47% 30.22 in 10.0 mi NNE 8.1 mph - N/A   Clear
5:53 PM 64.0 °F 44.1 °F 48% 30.24 in 10.0 mi NNE 4.6 mph - N/A   Clear
6:53 PM 55.0 °F 48.0 °F 77% 30.24 in 10.0 mi NNW 4.6 mph - N/A   Clear
7:53 PM 50.0 °F 48.0 °F 93% 30.25 in 10.0 mi Calm Calm - N/A   Clear
8:53 PM 51.1 °F 48.0 °F 89% 30.26 in 10.0 mi Calm Calm - N/A   Clear
9:53 PM 50.0 °F 48.0 °F 93% 30.26 in 10.0 mi NNW 3.5 mph - N/A   Clear
10:53 PM 50.0 °F 48.0 °F 93% 30.27 in 10.0 mi WNW 4.6 mph - N/A   Clear
11:53 PM 50.0 °F 48.0 °F 93% 30.27 in 10.0 mi NNW 3.5 mph - N/A   Clear